This is the latest recevied weather packets stored in our database for station/object HOWARD. If no packets are shown the sender has not sent any weather packets the latest 10 day(s).
| Time | Temp. | Humidity | Pressure | Rain* | Wind** | Luminosity | Snow |
|---|---|---|---|---|---|---|---|
| 1777896706 | 5.56° C | 55% | 1008.8 hPa | 0 mm | - | - | - |
| 1777896106 | 5.56° C | 55% | 1008.8 hPa | 0 mm | - | - | - |
| 1777895506 | 5° C | 54% | 1008.8 hPa | 0 mm | - | - | - |
| 1777894906 | 5° C | 51% | 1008.8 hPa | 0 mm | - | - | - |
| 1777894306 | 5° C | 49% | 1009 hPa | 0 mm | - | - | - |
| 1777893706 | 5.56° C | 50% | 1009.1 hPa | 0 mm | - | - | - |
| 1777893106 | 5° C | 51% | 1009.1 hPa | 0 mm | - | - | - |
| 1777892506 | 5° C | 49% | 1009.1 hPa | 0 mm | - | - | - |
| 1777891906 | 5° C | 50% | 1009 hPa | 0 mm | - | - | - |
| 1777891306 | 5.56° C | 48% | 1009 hPa | 0 mm | - | - | - |
| 1777890706 | 5° C | 46% | 1008.9 hPa | 0 mm | - | - | - |
| 1777890106 | 5° C | - | 1008.9 hPa | 0 mm | - | - | - |
| 1777889506 | 5° C | 55% | 1008.9 hPa | 0 mm | - | - | - |
| 1777888906 | 5° C | 57% | 1008.9 hPa | 0 mm | - | - | - |
| 1777888306 | 5° C | 55% | 1008.8 hPa | 0 mm | - | - | - |
| 1777887706 | 5° C | 56% | 1009.4 hPa | 0 mm | - | - | - |
| 1777887106 | 5° C | 56% | 1009.3 hPa | 0 mm | - | - | - |
| 1777886506 | 5° C | 56% | 1009.3 hPa | 0 mm | - | - | - |
| 1777885906 | 5° C | 56% | 1009.2 hPa | 0 mm | - | - | - |
| 1777885306 | 5° C | 57% | 1009.3 hPa | 0 mm | - | - | - |
| 1777884706 | 5.56° C | 57% | 1009.6 hPa | 0 mm | - | - | - |
| 1777884106 | 5.56° C | 57% | 1009.7 hPa | 0 mm | - | - | - |
| 1777883506 | 5.56° C | 56% | 1009.7 hPa | 0 mm | - | - | - |
| 1777882906 | 5.56° C | 56% | 1009.8 hPa | 0 mm | - | - | - |
| 1777882306 | 5.56° C | 57% | 1009.8 hPa | 0 mm | - | - | - |
* Rain latest hour (hover to see other rain measurements)
** Current wind speed in m/s (hover to see current wind gust speed)